Location: Erdweis
(48.5167°N, 15.3500°E)
Time: 14:20:35
(UTC+00:00)

USA 234 - Pass Details

Date: 24 January 2021
Orbit: 1100 x 1107 km, 123.0° (Epoch: 01 March)

Event Time Altitude Azimuth Distance (km) Brightness Sun altitude
Exits shadow 17:29:28 24° 64° (ENE) 2,113 4.2 -17.2°
Maximum altitude 17:33:02 44° 7° (N) 1,489 3.8 -17.7°
Drops below altitude 10° 17:39:09 10° 298° (WNW) 2,968 6.3 -18.7°
Sets 17:41:44 0° 293° (WNW) 3,927 7.2 -19.2°
